Buffalo, NY

7:47 PM EDT on July 24, 2017 (GMT -0400)
Buffalo Niagara International

Weather History for KBUF - August, 2013

Change the Weather History Date:

Friday, August 30, 2013

  Actual Average Record
Temperature  
Mean Temperature 73 °F 68 °F  
Max Temperature 82 °F 77 °F 91 °F (1951)
Min Temperature 64 °F 59 °F 38 °F (1965)
Degree Days  
Heating Degree Days 0 1  
Month to date heating degree days 10 15  
Since 1 June heating degree days 80 88  
Since 1 July heating degree days 16 24  
Cooling Degree Days 8 4  
Month to date cooling degree days 132 157  
Year to date cooling degree days 542 483  
Since 1 June cooling degree days 471 457  
Growing Degree Days 23 (Base 50)    
Moisture  
Dew Point 65 °F    
Average Humidity 78    
Maximum Humidity 93    
Minimum Humidity 62    
Precipitation  
Precipitation 0.02 in 0.11 in 1.48 in (1903)
Month to date precipitation 3.46 3.16  
Year to date precipitation 27.58 25.06  
Snow  
Snow 0.00 in 0.00 in 0.00 in ()
Month to date snowfall 0.0 0.0  
Since 1 June snowfall 0.0 0.0  
Since 1 July snowfall 0.0 0.0  
Snow Depth 0.00 in    
Sea Level Pressure  
Sea Level Pressure 29.90 in    
Wind  
Wind Speed 9 mph (SSW)    
Max Wind Speed 23 mph    
Max Gust Speed 30 mph    
Visibility 9 miles    
Events Rain    
T = Trace of Precipitation, MM = Missing Value Source: NWS Daily Summary

Daily Weather History Graph

Daily Weather History Graph

Search for Another Location

Airport or City:

Trip Planner

Search our weather history database for the weather conditions in past years. The results will help you decide how hot, cold, wet, or windy it might be!

Date:

Astronomy

Aug. 30, 2013 Rise Set
Actual Time 6:37 AM EDT 7:52 PM EDT
Civil Twilight 6:08 AM EDT 8:21 PM EDT
Nautical Twilight 5:32 AM EDT 8:56 PM EDT
Astronomical Twilight 4:55 AM EDT 9:33 PM EDT
Moon 1:10 AM EDT (8/30) 4:11 PM EDT (8/30)
Length of Visible Light 14h 13m
Length of Day
13h 15m
Waning Crescent, 29% of the Moon is Illuminated
Aug 30
Waning Crescent
Sep 5
New
Sep 12
First Quarter
Sep 19
Full
Sep 26
Last Quarter

Hourly Weather History & Observations

Time (EDT) Temp. Heat Index Dew Point Humidity Pressure Visibility Wind Dir Wind Speed Gust Speed Precip Events Conditions
12:54 AM 68.0 °F - 66.0 °F 93% 30.00 in 8.0 mi South 4.6 mph - N/A   Partly Cloudy
1:54 AM 66.9 °F - 64.9 °F 93% 29.99 in 8.0 mi South 4.6 mph - N/A   Scattered Clouds
2:54 AM 66.0 °F - 64.0 °F 93% 29.99 in 8.0 mi SSE 5.8 mph - N/A   Partly Cloudy
3:54 AM 64.9 °F - 63.0 °F 93% 29.98 in 9.0 mi South 4.6 mph - N/A   Partly Cloudy
4:54 AM 64.9 °F - 63.0 °F 93% 29.97 in 8.0 mi South 4.6 mph - N/A   Partly Cloudy
5:54 AM 64.0 °F - 62.1 °F 93% 29.98 in 9.0 mi South 4.6 mph - N/A   Partly Cloudy
6:54 AM 64.0 °F - 62.1 °F 93% 29.98 in 8.0 mi South 4.6 mph - N/A   Partly Cloudy
7:54 AM 66.0 °F - 64.0 °F 93% 29.97 in 8.0 mi South 6.9 mph - N/A   Scattered Clouds
8:54 AM 71.1 °F - 66.0 °F 84% 29.97 in 10.0 mi SSW 6.9 mph - N/A   Scattered Clouds
9:54 AM 77.0 °F - 68.0 °F 74% 29.96 in 10.0 mi SSW 8.1 mph - N/A   Mostly Cloudy
10:54 AM 78.1 °F - 66.9 °F 68% 29.94 in 10.0 mi SW 11.5 mph - N/A   Mostly Cloudy
11:54 AM 80.1 °F 82.1 °F 66.0 °F 62% 29.92 in 10.0 mi SSW 13.8 mph - N/A   Mostly Cloudy
12:54 PM 79.0 °F - 64.9 °F 62% 29.91 in 10.0 mi WSW 11.5 mph - N/A   Mostly Cloudy
1:54 PM 79.0 °F - 64.0 °F 60% 29.90 in 10.0 mi WSW 13.8 mph - N/A   Overcast
2:54 PM 79.0 °F - 66.0 °F 64% 29.88 in 10.0 mi WSW 11.5 mph 19.6 mph N/A   Overcast
3:54 PM 80.1 °F 82.3 °F 66.9 °F 64% 29.85 in 10.0 mi SSW 12.7 mph 17.3 mph N/A   Mostly Cloudy
4:54 PM 79.0 °F - 66.9 °F 66% 29.83 in 10.0 mi SW 12.7 mph - 0.00 in   Mostly Cloudy
5:54 PM 77.0 °F - 66.9 °F 71% 29.82 in 10.0 mi SW 12.7 mph - N/A   Mostly Cloudy
6:54 PM 75.9 °F - 68.0 °F 76% 29.80 in 10.0 mi SSW 9.2 mph - N/A   Mostly Cloudy
7:54 PM 75.9 °F - 66.0 °F 71% 29.81 in 10.0 mi SW 9.2 mph - N/A   Mostly Cloudy
8:54 PM 75.9 °F - 66.9 °F 74% 29.78 in 10.0 mi SSW 11.5 mph - N/A   Overcast
9:54 PM 75.0 °F - 64.9 °F 71% 29.78 in 10.0 mi SW 4.6 mph - N/A   Overcast
10:54 PM 73.9 °F - 66.0 °F 76% 29.76 in 9.0 mi SSW 6.9 mph - 0.00 in Rain Light Rain
11:54 PM 73.0 °F - 66.9 °F 81% 29.75 in 10.0 mi South 3.5 mph - 0.00 in   Overcast